Augusta Bush, GA

5:28 PM EDT on March 27, 2017 (GMT -0400)
Augusta Regional At Bush

Weather History for KAGS - September, 2013

Change the Weather History Date:

Saturday, September 28, 2013

  Actual Average Record
Temperature  
Mean Temperature 67 °F 71 °F  
Max Temperature 79 °F 83 °F 97 °F (1986)
Min Temperature 54 °F 58 °F 44 °F (1985)
Degree Days  
Heating Degree Days 0 1  
Month to date heating degree days 0 3  
Since 1 July heating degree days 0 3  
Cooling Degree Days 2 6  
Month to date cooling degree days 290 285  
Year to date cooling degree days 1765 1973  
Growing Degree Days 16 (Base 50)    
Moisture  
Dew Point 54 °F    
Average Humidity 67    
Maximum Humidity 93    
Minimum Humidity 40    
Precipitation  
Precipitation 0.00 in 0.12 in 2.60 in (1874)
Month to date precipitation 1.12 2.98  
Year to date precipitation 46.44 33.85  
Sea Level Pressure  
Sea Level Pressure 30.15 in    
Wind  
Wind Speed 5 mph (NNE)    
Max Wind Speed 18 mph    
Max Gust Speed 24 mph    
Visibility 10 miles    
Events      
T = Trace of Precipitation, MM = Missing Value Source: NWS Daily Summary

Daily Weather History Graph

Daily Weather History Graph

Search for Another Location

Airport or City:

Trip Planner

Search our weather history database for the weather conditions in past years. The results will help you decide how hot, cold, wet, or windy it might be!

Date:

Astronomy

Sep. 28, 2013 Rise Set
Actual Time 7:20 AM EDT 7:16 PM EDT
Civil Twilight 6:55 AM EDT 7:40 PM EDT
Nautical Twilight 6:26 AM EDT 8:09 PM EDT
Astronomical Twilight 5:57 AM EDT 8:38 PM EDT
Moon 1:21 AM EDT (9/28) 3:19 PM EDT (9/28)
Length of Visible Light 12h 45m
Length of Day
11h 55m
Last Quarter, 36% of the Moon is Illuminated
Sep 28
Last Quarter
Oct 4
New
Oct 11
First Quarter
Oct 18
Full
Oct 26
Last Quarter

Hourly Weather History & Observations

Time (EDT) Temp. Dew Point Humidity Pressure Visibility Wind Dir Wind Speed Gust Speed Precip Events Conditions
12:53 AM 59.0 °F 54.0 °F 83% 30.14 in 10.0 mi North 4.6 mph - N/A   Clear
1:53 AM 59.0 °F 55.0 °F 87% 30.14 in 10.0 mi Calm Calm - N/A   Clear
2:53 AM 59.0 °F 55.0 °F 87% 30.13 in 10.0 mi Calm Calm - N/A   Clear
3:53 AM 54.0 °F 52.0 °F 93% 30.13 in 10.0 mi Calm Calm - N/A   Clear
4:53 AM 57.0 °F 55.0 °F 93% 30.13 in 10.0 mi Calm Calm - N/A   Clear
5:53 AM 55.9 °F 54.0 °F 93% 30.15 in 10.0 mi Calm Calm - N/A   Clear
6:53 AM 54.0 °F 52.0 °F 93% 30.17 in 10.0 mi North 4.6 mph - N/A   Clear
7:53 AM 55.9 °F 54.0 °F 93% 30.18 in 10.0 mi NNE 5.8 mph - N/A   Clear
8:53 AM 61.0 °F 55.9 °F 83% 30.20 in 10.0 mi NNE 4.6 mph - N/A   Clear
9:53 AM 66.9 °F 54.0 °F 63% 30.21 in 10.0 mi NNE 6.9 mph - N/A   Clear
10:53 AM 72.0 °F 51.1 °F 48% 30.21 in 10.0 mi NE 13.8 mph - N/A   Clear
11:53 AM 73.9 °F 52.0 °F 46% 30.20 in 10.0 mi NE 11.5 mph - N/A   Clear
12:53 PM 75.9 °F 51.1 °F 42% 30.19 in 10.0 mi NNE 11.5 mph 20.7 mph N/A   Clear
1:53 PM 77.0 °F 51.1 °F 40% 30.16 in 10.0 mi NNE 11.5 mph 21.9 mph N/A   Clear
2:53 PM 78.1 °F 53.1 °F 42% 30.13 in 10.0 mi NNE 13.8 mph - N/A   Partly Cloudy
3:53 PM 78.1 °F 53.1 °F 42% 30.12 in 10.0 mi North 15.0 mph - N/A   Scattered Clouds
4:53 PM 77.0 °F 53.1 °F 43% 30.12 in 10.0 mi NE 8.1 mph - N/A   Scattered Clouds
5:53 PM 77.0 °F 54.0 °F 45% 30.12 in 10.0 mi NE 10.4 mph - N/A   Scattered Clouds
6:53 PM 72.0 °F 54.0 °F 53% 30.12 in 10.0 mi NNE 5.8 mph - N/A   Scattered Clouds
7:53 PM 66.0 °F 55.0 °F 68% 30.12 in 10.0 mi Calm Calm - N/A   Mostly Cloudy
8:53 PM 60.1 °F 57.0 °F 90% 30.13 in 10.0 mi Calm Calm - N/A   Clear
9:53 PM 59.0 °F 57.0 °F 93% 30.13 in 10.0 mi Calm Calm - N/A   Mostly Cloudy
10:53 PM 60.1 °F 57.0 °F 90% 30.13 in 10.0 mi Calm Calm - 0.01 in   Scattered Clouds
11:53 PM 57.0 °F 55.0 °F 93% 30.14 in 10.0 mi Calm Calm - N/A   Scattered Clouds